Wind_Speed
39 39 39 39 39 40 40 39 38 37 36 36 36 36 36 36 36 37 37 37 37 38 38 39 40 41 43 44 45 46 47 48 48 49 50 51 52 52 52 52 52 52 51
39 39 39 39 39 40 40 39 39 38 37 37 37 37 37 36 37 38 38 38 38 38 39 40 41 42 44 44 45 47 48 49 50 50 50 50 51 52 51 50 50 50 49
39 39 39 39 39 39 39 39 39 38 37 37 37 37 37 37 38 38 38 38 38 39 40 41 42 43 44 45 46 47 48 49 50 50 50 50 50 49 49 48 48 47 46
39 39 39 39 39 39 39 39 39 39 38 37 38 37 37 38 38 38 38 38 39 39 40 42 43 44 44 45 46 47 48 49 50 49 49 48 47 46 46 46 45 44 42
39 39 38 38 38 38 38 38 38 38 38 38 37 37 37 38 38 38 38 38 39 40 40 42 43 44 45 46 47 47 48 49 49 48 47 45 45 44 44 44 42 40 38
38 38 38 38 38 38 38 38 38 38 38 39 38 38 38 38 38 37 38 39 39 40 40 42 42 43 44 45 46 46 47 47 46 45 44 44 43 43 43 42 40 38 35
37 37 37 38 38 39 39 38 38 38 38 38 38 38 38 38 38 38 38 39 39 40 40 41 42 43 43 44 44 45 46 45 44 43 43 43 43 42 42 40 39 38 35
37 37 37 37 37 37 37 37 37 37 38 38 38 38 38 38 38 39 39 39 39 39 40 41 42 42 42 43 43 44 43 42 42 42 43 43 42 41 39 38 37 36 34
36 36 36 36 36 37 37 37 36 37 37 37 37 37 37 37 38 38 38 38 38 39 39 40 41 41 42 42 42 42 41 41 41 42 42 42 40 38 37 37 35 33 31
34 34 34 35 35 35 36 36 36 36 36 36 36 36 37 37 37 37 38 38 38 38 39 39 40 41 41 40 40 39 40 40 40 40 40 39 38 36 35 34 33 31 30
33 33 34 34 34 35 35 35 35 35 35 36 36 36 36 37 37 37 37 37 38 38 38 39 39 39 38 38 38 38 39 39 39 39 38 36 35 34 33 32 31 30 29
33 34 34 34 34 34 34 34 35 35 35 36 36 36 36 36 36 36 36 36 37 37 38 38 38 37 37 37 37 38 38 38 38 37 35 34 32 31 31 30 29 28 28
33 33 32 32 33 33 33 34 34 34 35 35 35 35 35 35 35 35 36 36 36 37 37 37 36 36 36 36 36 37 37 36 36 34 32 31 30 30 29 28 27 27 26
32 32 32 32 32 32 32 33 33 34 34 35 35 34 34 34 35 35 35 35 35 36 35 35 34 34 34 34 34 34 34 33 32 30 29 29 28 27 26 26 25 25 24
32 32 32 32 32 31 31 31 32 33 33 34 34 34 34 34 34 34 34 34 34 33 33 32 32 32 32 31 31 31 31 29 28 28 28 27 26 25 25 24 24 23 23
32 32 32 31 31 31 31 31 32 32 33 33 33 33 33 33 33 33 33 32 32 31 30 29 29 29 29 29 29 28 28 27 26 27 27 26 25 24 24 23 23 22 22
31 31 31 31 31 31 31 31 31 31 31 31 31 31 31 31 31 31 31 30 29 28 28 27 27 27 27 27 26 26 26 25 25 25 25 24 23 23 23 22 21 20 20
29 29 29 29 29 29 30 30 30 30 29 29 29 29 29 28 28 28 28 28 27 26 26 25 26 26 26 25 25 25 25 24 24 24 24 22 22 22 21 20 20 19 19
29 28 28 28 28 28 28 29 28 28 27 26 27 27 27 25 25 25 25 25 25 24 24 24 25 25 24 24 24 24 24 23 23 23 22 21 21 20 19 19 19 19 18
28 27 27 26 27 26 26 26 26 25 25 24 25 25 24 23 23 23 23 23 23 23 23 24 24 23 23 24 23 23 23 22 22 21 21 20 19 19 18 17 17 17 17
27 27 26 26 25 25 24 24 23 23 23 23 23 22 22 22 22 22 22 22 23 23 23 23 22 22 22 22 22 21 21 21 20 20 19 19 18 17 16 16 16 16 17
27 26 25 25 25 24 24 23 23 22 22 21 21 21 21 21 21 22 22 22 22 22 22 21 22 22 21 21 21 20 20 19 18 18 18 17 16 16 15 14 15 16 16
25 25 25 24 24 24 23 23 22 21 20 20 21 21 21 21 21 21 21 21 21 21 21 20 20 21 20 20 20 19 18 17 17 17 17 16 15 15 14 14 14 15 15
24 25 25 24 24 23 23 22 22 22 21 21 21 21 20 21 21 21 21 21 20 20 20 20 20 20 20 19 18 18 17 17 17 16 16 15 15 14 14 13 13 13 13
24 25 25 24 23 23 22 22 23 22 22 22 21 21 21 22 22 21 20 19 19 19 19 19 19 19 18 18 17 17 16 17 17 16 15 15 15 14 13 12 12 12 12
24 24 25 24 23 22 22 22 22 22 22 22 22 22 22 22 21 20 19 18 18 18 18 17 17 17 17 16 16 16 15 15 16 15 14 14 13 13 12 12 11 11 11
Wind_Direction
243 244 245 247 249 251 253 255 256 258 260 262 263 266 269 272 275 277 280 282 284 286 288 290 293 295 296 297 298 299 300 300 301 303 303 303 303 303 303 302 302 301 301
244 244 246 247 249 251 253 255 256 258 260 262 264 267 269 272 275 277 279 282 284 286 288 291 294 295 297 298 299 300 300 301 303 304 304 305 305 304 304 303 303 303 302
244 245 246 248 249 251 253 254 256 257 260 262 264 267 270 273 275 277 279 281 283 286 289 292 294 296 297 298 300 301 301 303 304 305 306 305 306 306 306 305 305 305 303
244 245 247 247 248 250 251 252 254 257 259 262 265 268 270 273 276 278 280 282 284 286 289 292 295 296 298 299 300 301 303 304 305 306 306 306 307 308 308 307 307 306 305
244 245 247 247 248 250 251 253 256 258 259 262 265 267 270 273 276 278 281 283 285 288 291 294 295 297 299 300 301 302 304 305 306 306 306 306 307 308 309 309 309 308 307
244 245 246 247 248 249 251 254 256 258 260 262 264 268 270 273 276 279 281 284 286 289 292 294 296 298 300 301 303 304 305 306 306 307 307 307 308 309 310 310 310 310 308
244 246 246 247 248 250 251 254 256 259 261 263 265 267 270 272 276 279 281 284 287 289 292 294 296 298 300 301 303 305 306 307 307 307 309 310 310 310 310 311 311 311 309
244 246 247 247 248 249 251 254 257 260 262 264 265 268 271 274 277 280 283 284 287 290 292 294 296 298 300 301 303 304 306 307 307 308 309 311 311 311 311 311 311 312 311
244 246 246 247 248 249 251 254 257 260 262 264 266 268 271 274 277 280 283 285 288 290 292 295 297 298 300 302 303 305 306 307 308 309 310 311 312 311 312 312 312 312 310
243 245 246 247 248 250 252 255 258 260 263 265 266 269 272 275 278 281 283 285 287 290 292 295 297 298 300 301 303 304 306 307 309 310 311 312 312 312 312 313 313 312 312
243 244 246 248 250 252 253 256 259 261 263 265 267 269 272 276 279 281 283 286 288 290 292 294 296 298 299 301 302 304 306 307 309 310 311 312 312 312 313 313 313 312 312
244 246 247 249 252 253 255 256 258 260 263 265 267 269 272 276 278 281 283 286 288 290 292 294 295 297 298 300 302 304 306 307 309 310 311 312 312 312 313 313 313 314 314
246 246 248 250 253 254 256 257 258 260 262 264 267 269 272 275 279 281 283 285 288 290 292 293 295 295 296 299 301 304 306 307 309 311 311 312 312 313 312 312 312 313 314
248 249 250 252 253 255 256 258 259 261 262 264 266 268 272 276 278 280 283 285 287 289 291 293 294 294 296 300 302 305 307 309 311 312 313 314 315 315 314 314 314 315 316
249 251 252 253 253 255 256 258 259 261 263 265 267 269 272 275 278 280 282 284 286 288 289 291 293 295 298 300 303 306 309 310 312 313 314 315 315 316 316 316 316 316 318
251 252 253 254 255 255 256 258 260 262 263 265 268 270 272 274 276 279 281 282 284 286 288 290 292 296 298 301 303 307 309 310 312 314 315 315 314 315 316 317 317 317 320
252 253 254 255 256 257 258 259 260 262 265 267 268 269 271 274 276 278 280 281 283 285 287 289 292 296 298 301 303 306 309 310 311 314 315 315 315 316 317 320 320 320 322
252 254 255 255 257 258 259 260 261 262 264 265 266 268 271 273 274 276 278 280 282 284 286 288 292 296 298 300 302 306 308 309 311 314 315 316 316 317 319 321 323 323 323
251 253 255 255 256 258 259 259 259 260 262 263 265 267 269 271 273 275 276 279 281 283 284 287 291 294 297 299 302 305 308 309 310 313 314 314 316 318 319 321 323 326 327
249 251 254 255 255 255 256 257 256 258 260 262 265 266 267 270 272 273 275 279 281 282 283 287 290 292 295 298 301 303 306 308 309 311 313 313 315 317 318 320 324 327 330
247 249 252 253 254 254 253 253 254 256 259 261 262 263 265 268 270 272 275 279 281 282 285 288 289 291 294 297 299 301 303 306 308 311 313 313 314 316 317 320 323 326 330
246 247 248 250 251 251 250 251 252 255 258 260 261 263 265 267 270 274 278 280 283 284 286 287 288 290 292 294 297 298 300 303 306 309 310 310 312 314 315 317 320 325 328
245 245 246 247 248 248 248 249 250 252 255 258 261 263 266 269 272 276 278 279 281 284 286 287 289 290 291 292 293 294 298 300 304 307 307 307 308 310 312 315 319 324 328
244 243 243 244 245 247 248 248 248 250 253 257 259 262 265 269 273 276 277 279 281 284 286 287 289 291 291 291 290 292 295 297 302 304 304 303 305 305 307 312 318 323 328
242 241 241 242 245 246 248 250 250 252 253 255 257 262 266 270 273 275 276 277 281 283 285 287 287 290 291 290 289 292 294 295 300 301 301 300 302 303 305 310 316 321 326
241 239 239 240 243 245 248 250 250 251 252 254 258 262 266 270 272 271 272 276 280 283 286 289 289 288 288 290 289 290 291 294 298 300 299 300 301 302 304 307 312 318 322
Height
5675 5678 5681 5685 5688 5690 5693 5695 5698 5700 5701 5703 5704 5705 5705 5705 5705 5704 5704 5703 5702 5700 5698 5696 5693 5690 5687 5683 5679 5675 5670 5666 5662 5659 5652 5646 5640 5633 5627 5621 5615 5609 5604
5666 5669 5673 5676 5679 5681 5684 5686 5689 5691 5693 5694 5695 5696 5696 5696 5696 5696 5695 5694 5693 5691 5689 5687 5684 5681 5677 5673 5669 5664 5660 5655 5650 5646 5641 5634 5627 5620 5614 5608 5602 5596 5590
5657 5660 5664 5667 5670 5673 5675 5677 5680 5682 5684 5685 5686 5687 5687 5687 5687 5686 5686 5685 5684 5682 5680 5677 5674 5671 5667 5663 5658 5654 5649 5643 5638 5633 5628 5622 5615 5608 5602 5596 5590 5584 5578
5648 5651 5655 5658 5661 5663 5666 5668 5671 5673 5674 5676 5677 5677 5678 5678 5677 5677 5676 5675 5674 5672 5670 5667 5664 5660 5657 5652 5648 5643 5638 5632 5627 5621 5615 5610 5604 5597 5591 5585 5580 5574 5568
5639 5642 5646 5649 5651 5654 5657 5659 5661 5664 5665 5666 5667 5668 5668 5668 5668 5667 5667 5666 5664 5662 5660 5657 5653 5650 5646 5641 5637 5632 5627 5621 5616 5610 5604 5599 5593 5587 5582 5575 5570 5565 5560
5630 5633 5636 5639 5642 5645 5648 5650 5652 5654 5656 5657 5658 5659 5659 5659 5659 5658 5657 5656 5655 5653 5650 5647 5643 5640 5636 5631 5626 5621 5616 5610 5605 5599 5594 5589 5583 5577 5572 5566 5560 5556 5553
5621 5624 5627 5630 5633 5636 5639 5641 5643 5645 5647 5648 5649 5649 5649 5649 5649 5648 5648 5647 5645 5643 5640 5637 5634 5630 5626 5621 5616 5611 5605 5599 5594 5589 5584 5579 5574 5568 5563 5558 5552 5547 5543
5611 5615 5618 5621 5624 5626 5629 5632 5634 5635 5637 5638 5639 5640 5640 5640 5639 5639 5638 5637 5635 5633 5630 5627 5624 5620 5615 5611 5607 5602 5596 5591 5586 5581 5575 5570 5564 5559 5553 5549 5544 5540 5535
5603 5606 5609 5612 5614 5617 5620 5622 5624 5626 5627 5628 5629 5630 5630 5630 5630 5629 5628 5627 5625 5623 5620 5617 5613 5610 5606 5602 5598 5593 5588 5583 5577 5572 5566 5561 5555 5550 5545 5541 5536 5532 5528
5594 5597 5600 5603 5605 5608 5610 5613 5614 5616 5618 5619 5620 5620 5621 5621 5620 5619 5618 5617 5615 5613 5610 5607 5604 5600 5596 5592 5588 5584 5580 5575 5570 5565 5559 5553 5548 5543 5538 5533 5529 5525 5521
5585 5588 5591 5594 5596 5599 5601 5603 5605 5607 5608 5609 5610 5611 5611 5611 5610 5609 5608 5607 5605 5603 5601 5598 5594 5590 5587 5583 5579 5575 5571 5566 5562 5557 5551 5546 5541 5536 5531 5526 5522 5518 5514
5577 5580 5582 5585 5587 5589 5591 5593 5596 5597 5599 5600 5601 5601 5601 5601 5600 5599 5598 5597 5595 5593 5591 5588 5585 5581 5578 5575 5571 5567 5562 5558 5553 5549 5544 5539 5534 5530 5525 5521 5516 5512 5508
5568 5571 5574 5576 5578 5581 5583 5585 5586 5588 5590 5591 5591 5592 5592 5592 5591 5590 5588 5587 5585 5583 5581 5579 5576 5572 5569 5566 5562 5558 5554 5550 5546 5541 5537 5532 5528 5524 5520 5515 5511 5507 5503
5560 5563 5565 5568 5570 5572 5574 5576 5577 5579 5580 5581 5582 5583 5583 5582 5581 5580 5579 5577 5576 5574 5572 5569 5567 5564 5561 5558 5554 5551 5547 5543 5539 5535 5531 5527 5523 5518 5514 5511 5507 5503 5500
5552 5554 5557 5559 5561 5563 5565 5567 5568 5570 5571 5572 5573 5573 5573 5573 5572 5571 5569 5568 5566 5565 5563 5561 5559 5556 5553 5550 5547 5544 5540 5536 5533 5529 5525 5521 5518 5514 5510 5506 5503 5499 5495
5544 5546 5549 5551 5553 5555 5556 5558 5559 5561 5562 5562 5563 5563 5563 5563 5562 5561 5560 5559 5557 5556 5554 5553 5551 5549 5546 5544 5541 5537 5534 5530 5527 5524 5520 5516 5513 5509 5506 5502 5499 5495 5491
5536 5538 5540 5543 5544 5546 5548 5549 5551 5552 5552 5553 5554 5554 5554 5554 5553 5552 5551 5550 5549 5548 5547 5545 5544 5542 5540 5537 5534 5531 5528 5525 5522 5519 5515 5512 5508 5505 5502 5499 5495 5492 5488
5528 5530 5532 5534 5536 5538 5539 5541 5542 5543 5544 5544 5545 5545 5545 5545 5545 5544 5544 5543 5542 5541 5540 5538 5537 5535 5533 5531 5528 5526 5523 5520 5517 5514 5511 5507 5504 5501 5498 5495 5492 5489 5485
5520 5522 5524 5526 5528 5529 5531 5532 5533 5534 5536 5537 5537 5537 5537 5537 5537 5537 5536 5536 5535 5534 5533 5532 5530 5529 5527 5525 5522 5520 5517 5515 5512 5509 5506 5503 5501 5498 5495 5492 5489 5486 5483
5512 5514 5516 5518 5520 5521 5523 5524 5526 5527 5528 5529 5529 5530 5530 5530 5530 5530 5529 5529 5528 5527 5526 5525 5524 5522 5521 5519 5517 5514 5512 5510 5507 5505 5502 5499 5497 5494 5492 5489 5486 5483 5480
5504 5506 5508 5510 5512 5514 5515 5517 5518 5520 5521 5522 5522 5523 5523 5524 5524 5523 5523 5522 5522 5521 5520 5519 5517 5516 5514 5513 5511 5509 5507 5505 5503 5500 5498 5496 5493 5491 5488 5486 5483 5481 5478
5496 5499 5501 5503 5505 5507 5508 5510 5512 5513 5514 5515 5516 5516 5517 5517 5517 5517 5517 5516 5515 5514 5514 5512 5511 5510 5509 5507 5506 5504 5502 5500 5499 5497 5494 5492 5490 5488 5486 5483 5481 5479 5476
5489 5491 5493 5496 5498 5500 5502 5503 5505 5507 5508 5509 5510 5510 5511 5511 5511 5511 5510 5510 5509 5508 5507 5506 5505 5504 5503 5501 5500 5499 5497 5496 5494 5493 5491 5489 5487 5485 5483 5481 5479 5476 5474
5481 5484 5486 5489 5491 5493 5495 5497 5498 5500 5501 5503 5504 5504 5505 5505 5505 5505 5504 5504 5503 5502 5501 5500 5499 5498 5497 5496 5495 5494 5493 5491 5490 5489 5487 5485 5484 5482 5480 5478 5476 5474 5472
5474 5477 5480 5482 5484 5486 5488 5490 5492 5493 5495 5496 5497 5498 5499 5499 5499 5498 5498 5498 5497 5497 5496 5495 5494 5493 5491 5491 5490 5489 5488 5487 5486 5484 5483 5481 5480 5479 5477 5476 5474 5472 5470
5467 5470 5472 5475 5477 5479 5481 5483 5485 5487 5488 5490 5491 5492 5492 5492 5492 5492 5492 5492 5492 5491 5490 5489 5488 5487 5487 5486 5485 5484 5483 5482 5481 5480 5479 5478 5477 5475 5474 5473 5471 5470 5468